COSMOS 1275 DEB

Satellite information

Favourite Embed

Satellite Type and Status

DEBRISIN ORBIT

Key statistics

Satellite COSMOS 1275 DEB at a glance.

Uptime

16104

Days in orbit

Revolutions

≈ 14.3

Per day

Orbit

LEO

Low Earth Orbit

Inclination

82.8

Latest

Satellite identification and parameters

Extended collection of information and parameters for COSMOS 1275 DEB.

Object identification

Identified? True

Debris? True

Object name: COSMOS 1275 DEB

International designator: 1981-053FU

Object number (NORAD): 13472

Object ID (CCSDS): 13472

Country: COMMONWEALTH OF INDEPENDENT STATES (CIS)

Current information (Y/N): Y

RCS size: SMALL

Orbital parameters

Period: 100.516 minutes

Inclination: 82.8457 deg

SMA: 7161.177 km

Apoapsis: 792.252 km

Periapsis: 773.831 km

RAAN: 257.4679 deg

Eccentricy: 0.0012862

Argument of periapsis: 256.1146 deg

Mean anomaly: 169.431 deg

Mean motion: 14.32604088 rev/day

Mean motion (dot): 0.00003168 rev/day2

B* drag term: 0.0011599 1/REarth

Two-line elements (TLE)

Creation date: July 6, 2025, 6:05 p.m.

Reference frame: TEME

Reference center: EARTH

Epoch: July 6, 2025, 12:06 p.m. UTC

TLE line 0: 0 COSMOS 1275 DEB

TLE line 1: 1 13472U 81053FU 25187.50440024 .00003168 00000-0 11599-2 0 9991

TLE line 2: 2 13472 82.8457 257.4679 0012862 256.1146 169.4310 14.32604088199815

Live tracking on map

Real-time ground track for satellite COSMOS 1275 DEB.

In-orbit conjunctions

A list of the most updated potential collisions computed for object COSMOS 1275 DEB.

Target Orbit TCA Probability of collision Miss distance Type
CZ-6A DEB LEO 2024-11-24 03:24:25 0.0001501651 106.0 (m) DEBRIS
DELTA 1 DEB SSO 2024-10-17 12:02:05 0.0002427433 125.0 (m) DEBRIS
STELLA SSO 2024-09-23 00:11:13 0.001179047 108.0 (m) PAYLOAD

Associated space launch

Navigation satellite providing location information for the Tsiklon-B navigation system

COSMOS 1275 DEB was lifted into orbit during the mission ‘Kosmos-3M | Parus 27’, on board a Kosmos-3M space rocket.

The launch took place on June 4, 1981, 3:41 p.m. from 132/2.

For more information about the launch, click the button.

Launch to space Kosmos-3M | Parus 27
Kosmos-3M | Parus 27

Agency: N/A

Status: Launch Successful

Launch date: June 4, 1981, 3:41 p.m. UTC

Rocket: Kosmos-3M

Launch pad: 132/2

Location: Plesetsk Cosmodrome, Russian Federation

...

Latest news about this satellite

There are no fresh news available about this satellite. Check back as we update our databases every day.


Newsletter sign-up

Weekly statistics, charts and insights to help you stay on top of the space industry.